Ulaanbaatar/Chinggis Khaan International Airport

Airport
ICAO code: 
ZMUB
IATA Code: 
ULN
Summary
ICAO Region: 
APAC
Territory: 
Location: 
Ulaanbaatar,
Serving: 
Ulaanbaatar
Elevation: 
4364 ft
Coordinates: 
Aerial View: 
47° 50' 35" N, 106° 45' 59" E
Airport RE: 
Hot and High Operations
Metar
Observation
ZMUB 060330Z VRB01MPS 5000 FU NSC M12/M16 Q1025 NOSIG RMK QFE660.5 70 NW MO
Station
Ulan-Bator
Date/Time
2021-12-06 03:30:00
Lowest cloud amount
n/a
Temperature
-12°C
Dew point
-16°C
Humidity
72%
QNH
1025 hPa
Weather condition
n/a

Description

International airport serving Ulan Bator, capital of Mongolia.

Climatology

Due to its high elevation, relatively high latitude (1350 meters (4430 feet) AMSL), location hundreds of kilometres from any coast, and the effects of the Siberian anticyclone, Ulan Bator is the coldest national capital in the world, with a monsoon-influenced, continental, semi-arid climate (Köppen climate classification BSk) with brief, warm summers and long, very cold and dry winters.

Runways

Designator Length Width Surface Rops
15/33 1999 40 GRE No/No
14/32 3100 60 ASP Yes/Yes
Airport map: 
Aerial View: 

SKYbrary Partners:

Safety knowledge contributed by: